Stations météo

réclame
Mon MeteoGroup
Lerida, Espagne (8171): Température de l'air & dewpoint: 11.07.2018 13:00:00 - 17.07.2018 13:00:00 (CEST)Lerida, Espagne (8171): Vitesse du vent: 11.07.2018 13:00:00 - 17.07.2018 13:00:00 (CEST)Lerida, Espagne (8171): Direction du vent: 11.07.2018 13:00:00 - 17.07.2018 13:00:00 (CEST)Lerida, Espagne (8171): reduced air pressure: 11.07.2018 13:00:00 - 17.07.2018 13:00:00 (CEST)Lerida, Espagne (8171): visibility: 11.07.2018 13:00:00 - 17.07.2018 13:00:00 (CEST)Lerida, Espagne (8171): Quantités de précipitations: 11.07.2018 13:00:00 - 17.07.2018 13:00:00 (CEST)
Date & Time tt [°C] td [°C] ff [km/h] ff [knt] dd ppp [hPa] vv [km] rr [mm]
17.07.2018 13:00:00 26,7 13,4 8 4 WNW 1018,4 20 0,0
17.07.2018 12:00:00 25,3 13,8 5 3 W 1018,9 20 0,0
17.07.2018 11:00:00 23,8 13,6 8 4 S 1019,3 35 -
17.07.2018 10:00:00 21,9 13,5 8 4 SW 1019,7 20 0,0
17.07.2018 09:00:00 20,0 13,5 8 4 SSW 1019,8 20 0,0
17.07.2018 08:00:00 18,3 13,4 2 1 S 1019,7 18 -
17.07.2018 07:00:00 16,3 13,4 4 2 WSW 1019,5 15 0,0
17.07.2018 06:00:00 16,8 13,3 5 3 WSW 1018,9 20 0,0
17.07.2018 05:00:00 17,2 13,3 8 4 SW 1018,6 19 -
17.07.2018 04:00:00 18,2 13,3 5 3 SW 1018,2 20 0,0
17.07.2018 03:00:00 19,3 13,0 8 4 SSW 1018,2 20 0,0
17.07.2018 02:00:00 20,3 12,8 9 5 SW 1018,0 20 -
17.07.2018 01:00:00 21,1 13,0 9 5 WSW 1017,7 20 0,0
17.07.2018 00:00:00 21,9 13,5 9 5 S 1017,4 20 0,0
16.07.2018 23:00:00 23,1 13,6 15 8 SSW 1016,5 20 -
16.07.2018 22:00:00 24,7 13,3 22 12 WNW 1015,0 20 0,0
16.07.2018 21:00:00 26,4 13,2 24 13 W 1014,0 20 0,0
16.07.2018 20:00:00 28,7 12,6 31 17 W 1013,1 40 -
16.07.2018 19:00:00 30,3 12,7 26 14 W 1012,5 20 0,0
16.07.2018 18:00:00 30,8 12,2 28 15 W 1012,5 19 0,0
16.07.2018 17:00:00 31,4 12,7 24 13 W 1012,5 25 -
16.07.2018 16:00:00 31,4 13,6 24 13 W 1012,4 19 0,0
16.07.2018 15:00:00 31,0 15,8 9 5 W 1012,3 20 0,0
16.07.2018 14:00:00 29,7 15,0 8 4 WNW 1012,7 35 -
16.07.2018 13:00:00 26,8 15,2 5 3 WSW 1012,8 20 0,0
16.07.2018 12:00:00 24,6 16,8 5 3 NNE 1013,2 20 0,0
16.07.2018 11:00:00 23,0 17,0 11 6 WNW 1012,8 25 -
16.07.2018 10:00:00 21,7 16,9 16 9 WNW 1012,5 20 0,0
16.07.2018 09:00:00 20,0 17,2 11 6 SSW 1012,3 17 1,0
16.07.2018 08:00:00 20,3 15,7 11 6 SW 1012,3 17 -
16.07.2018 07:00:00 20,3 15,7 9 5 SSW 1011,8 20 0,0
16.07.2018 06:00:00 20,8 16,2 9 5 S 1011,6 20 0,0
16.07.2018 05:00:00 21,9 17,7 13 7 WSW 1010,5 17 -
16.07.2018 04:00:00 23,2 18,1 5 3 S 1011,0 19 0,0
16.07.2018 03:00:00 23,5 15,3 5 3 N 1010,7 20 0,0
16.07.2018 02:00:00 23,6 16,9 2 1 NW 1011,0 19 -
16.07.2018 01:00:00 24,1 16,9 9 5 NNE 1011,4 20 0,0
16.07.2018 00:00:00 25,3 17,0 9 5 NE 1011,5 19 0,0
15.07.2018 23:00:00 27,1 11,6 5 3 SSE 1010,9 20 -
15.07.2018 22:00:00 29,3 11,8 9 5 SSW 1010,1 20 0,0
15.07.2018 21:00:00 31,7 12,0 11 6 S 1009,4 20 0,0
15.07.2018 20:00:00 34,2 11,4 9 5 SSE 1009,4 25 -
15.07.2018 19:00:00 36,6 9,2 4 2 N 1009,1 17 0,0
15.07.2018 18:00:00 36,9 9,5 8 4 N 1009,6 13 0,0
15.07.2018 17:00:00 37,2 10,5 9 5 W 1009,9 30 -
15.07.2018 16:00:00 36,5 9,9 8 4 SW 1010,8 18 0,0
15.07.2018 15:00:00 35,4 11,1 5 3 W 1011,8 20 0,0
15.07.2018 14:00:00 34,1 12,4 8 4 W 1012,8 30 -
15.07.2018 13:00:00 32,5 16,8 5 3 SSW 1013,4 20 0,0
15.07.2018 12:00:00 30,5 17,6 8 4 SW 1014,2 20 0,0
15.07.2018 11:00:00 28,9 16,5 5 3 S 1014,6 25 -
15.07.2018 10:00:00 26,3 14,4 4 2 NNW 1015,0 20 0,0
15.07.2018 09:00:00 24,1 13,3 4 2 NNE 1015,2 20 0,0
15.07.2018 08:00:00 22,1 12,6 4 2 ENE 1015,1 20 -
15.07.2018 07:00:00 19,9 12,2 4 2 ENE 1014,9 19 0,0
15.07.2018 06:00:00 20,8 11,7 8 4 NNE 1014,5 20 0,0
15.07.2018 05:00:00 21,1 12,0 9 5 NNE 1014,6 20 -
15.07.2018 04:00:00 21,4 12,0 5 3 NE 1014,5 20 0,0
15.07.2018 03:00:00 22,1 12,1 8 4 NNE 1014,5 20 0,0
15.07.2018 02:00:00 23,2 11,9 8 4 ENE 1014,7 20 -
15.07.2018 01:00:00 24,2 12,5 5 3 NE 1015,0 20 0,0
15.07.2018 00:00:00 25,5 13,4 8 4 NNE 1014,5 19 0,0
14.07.2018 23:00:00 27,6 11,6 5 3 SSW 1014,2 20 -
14.07.2018 22:00:00 28,6 11,2 4 2 SSE 1013,4 20 0,0
14.07.2018 21:00:00 30,9 10,8 8 4 S 1012,6 20 0,0
14.07.2018 20:00:00 33,8 11,6 13 7 SSW 1012,3 35 -
14.07.2018 19:00:00 35,3 12,9 5 3 E 1012,2 20 0,0
14.07.2018 18:00:00 35,7 12,6 5 3 E 1012,6 20 0,0
14.07.2018 17:00:00 35,8 12,1 8 4 WNW 1013,0 30 -
14.07.2018 16:00:00 34,8 13,0 5 3 E 1013,9 20 0,0
14.07.2018 15:00:00 33,9 13,4 5 3 WSW 1014,4 20 0,0
14.07.2018 14:00:00 32,6 13,8 5 3 N 1015,2 30 -
14.07.2018 13:00:00 31,4 13,6 5 3 SSE 1016,0 11 0,0
14.07.2018 12:00:00 29,7 14,7 8 4 SW 1016,5 20 0,0
14.07.2018 11:00:00 27,8 14,1 5 3 WSW 1016,8 20 -
14.07.2018 10:00:00 25,0 15,0 2 1 N 1016,9 18 0,0
14.07.2018 09:00:00 22,8 15,4 4 2 S 1016,9 16 0,0
14.07.2018 08:00:00 19,7 15,1 2 1 S 1016,6 11 -
14.07.2018 07:00:00 18,8 14,7 5 3 NNE 1016,3 15 0,0
14.07.2018 06:00:00 19,2 14,9 5 3 NNE 1016,1 16 0,0
14.07.2018 05:00:00 20,4 14,7 5 3 ENE 1015,9 19 -
14.07.2018 04:00:00 20,7 15,3 8 4 NNE 1016,3 18 0,0
14.07.2018 03:00:00 21,4 15,2 4 2 ENE 1016,6 19 0,0
14.07.2018 02:00:00 22,5 14,9 8 4 NNE 1016,7 19 -
14.07.2018 01:00:00 23,1 14,6 8 4 NNE 1016,7 20 0,0
14.07.2018 00:00:00 24,3 15,0 8 4 NNE 1016,6 15 0,0
13.07.2018 23:00:00 27,1 13,1 13 7 E 1015,9 20 -
13.07.2018 22:00:00 27,8 13,0 15 8 E 1015,1 20 0,0
13.07.2018 21:00:00 28,3 13,4 11 6 ENE 1014,6 20 0,0
13.07.2018 20:00:00 31,0 13,7 5 3 SE 1014,2 35 -
13.07.2018 19:00:00 32,2 13,4 9 5 SSE 1014,2 20 0,0
13.07.2018 18:00:00 31,6 15,1 11 6 S 1014,5 20 0,0
13.07.2018 17:00:00 33,5 14,5 18 10 SSW 1014,2 35 -
13.07.2018 16:00:00 34,2 12,0 13 7 SE 1014,3 20 0,0
13.07.2018 15:00:00 31,9 14,1 9 5 ENE 1014,9 20 0,0
13.07.2018 14:00:00 31,9 14,1 5 3 E 1015,4 35 -
13.07.2018 13:00:00 31,4 13,6 9 5 E 1016,2 19 0,0
13.07.2018 12:00:00 30,7 14,3 8 4 E 1016,3 19 0,0
13.07.2018 11:00:00 28,4 15,3 8 4 NE 1016,7 18 -
13.07.2018 10:00:00 25,4 15,1 8 4 ENE 1017,1 19 0,0
13.07.2018 09:00:00 22,9 14,7 5 3 NE 1017,4 18 0,0
13.07.2018 08:00:00 20,8 14,4 8 4 ENE 1017,9 30 -
13.07.2018 07:00:00 19,3 14,1 5 3 NNE 1017,9 19 0,0
13.07.2018 06:00:00 19,9 14,0 5 3 NNE 1017,9 20 0,0
13.07.2018 05:00:00 20,7 14,6 4 2 W 1017,4 20 -
13.07.2018 04:00:00 21,3 14,2 8 4 ENE 1017,4 20 0,0
13.07.2018 03:00:00 21,6 14,7 11 6 ENE 1017,2 20 0,0
13.07.2018 02:00:00 22,4 16,0 8 4 NE 1017,2 18 -
13.07.2018 01:00:00 23,4 18,3 8 4 NNE 1017,0 20 0,0
13.07.2018 00:00:00 24,8 18,5 8 4 NE 1016,6 18 0,0
12.07.2018 23:00:00 25,5 18,7 9 5 ENE 1015,5 20 -
12.07.2018 22:00:00 26,3 18,9 5 3 SSW 1014,2 20 0,0
12.07.2018 21:00:00 27,7 16,9 5 3 SSW 1013,7 20 0,0
12.07.2018 20:00:00 29,3 16,5 9 5 SSE 1012,5 20 -
12.07.2018 19:00:00 32,5 17,5 15 8 SE 1012,2 19 0,0
12.07.2018 18:00:00 34,4 14,3 8 4 W 1011,9 20 0,0
12.07.2018 17:00:00 33,8 14,3 5 3 NE 1012,2 20 -
12.07.2018 16:00:00 32,7 14,3 5 3 SSE 1012,8 20 0,0
12.07.2018 15:00:00 31,6 16,0 8 4 NW 1013,6 20 0,0
12.07.2018 14:00:00 31,2 15,6 8 4 SSE 1014,1 30 -
12.07.2018 13:00:00 29,9 16,0 4 2 E 1014,4 20 0,0
12.07.2018 12:00:00 27,9 16,8 5 3 ENE 1014,7 20 0,0
12.07.2018 11:00:00 25,7 16,8 4 2 SE 1015,0 30 -
12.07.2018 10:00:00 25,2 16,1 8 4 E 1014,9 20 0,0
12.07.2018 09:00:00 22,9 17,1 5 3 E 1014,9 17 0,0
12.07.2018 08:00:00 21,9 16,8 2 1 E 1014,7 20 -
12.07.2018 07:00:00 21,4 16,6 8 4 NW 1014,4 20 0,0
12.07.2018 06:00:00 21,5 16,2 9 5 WNW 1014,6 20 0,0
12.07.2018 05:00:00 21,8 14,9 9 5 S 1014,0 20 -
12.07.2018 04:00:00 21,9 16,2 13 7 ENE 1013,2 20 0,0
12.07.2018 03:00:00 23,8 14,8 13 7 N 1014,7 20 0,0
12.07.2018 02:00:00 23,7 18,3 4 2 W 1015,1 20 -
12.07.2018 01:00:00 23,5 17,3 8 4 NNE 1014,2 20 0,0
12.07.2018 00:00:00 24,4 17,1 5 3 NNW 1014,2 17 0,0
11.07.2018 23:00:00 24,7 17,2 5 3 SSW 1013,7 20 -
11.07.2018 22:00:00 25,6 15,9 5 3 S 1012,7 20 0,0
11.07.2018 21:00:00 26,5 15,5 5 3 S 1011,9 20 0,0
11.07.2018 20:00:00 28,2 15,1 13 7 SSW 1011,2 40 -
11.07.2018 19:00:00 31,4 15,4 9 5 S 1010,4 20 0,0
11.07.2018 18:00:00 31,4 13,6 5 3 SSW 1010,6 20 0,0
11.07.2018 17:00:00 33,3 12,3 8 4 WSW 1010,5 35 -
11.07.2018 16:00:00 33,4 12,4 11 6 W 1010,7 20 0,0
11.07.2018 15:00:00 32,0 12,3 9 5 W 1011,7 20 0,0
11.07.2018 14:00:00 30,7 14,3 8 4 WSW 1012,4 30 -
11.07.2018 13:00:00 29,2 14,6 5 3 SSE 1013,3 19 0,0

tt = Température de l'air
td = dewpoint
ff = Vitesse du vent
dd = Direction du vent
ppp = reduced air pressure
vv = visibility
rr = Quantités de précipitations

stations d'obs. à proximité